Lexington Weather

Lexington, Massachusetts, USA

56°F
10/22/2020 8:08pm 
  • Lexington Conditions: Mostly cloudy
  • Temperature: 55.8°F / 13.2°C 
  • Dew Point: 54.3°F 
  • Relative Humidity: 95
  • Wind: Calm, 10-min avg: Calm, gust: 2 mph
  • Barometer: 30.22 in Steady
  • Visibility: 7 miles
  • Rain Today: 0.00 in
  •   
Southeast Middlesex County - Special Weather Statement
 - SEE ALL NEARBY ALERTS -

Regional Weather Roundup
for Boston / Norton, MA

        
000
ASUS41 KBOX 162005
RWRBOX

REGIONAL WEATHER ROUNDUP
NATIONAL WEATHER SERVICE BOSTON/NORTON MA
400 PM EDT FRI OCT 16 2020

NOTE:  "FAIR" INDICATES FEW OR NO CLOUDS BELOW 12,000 FEET WITH NO 
SIGNIFICANT WEATHER AND/OR OBSTRUCTIONS TO VISIBILITY.

MAZALL-162100-
EASTERN MASSACHUSETTS
  
CITY           SKY/WX    TMP DP  RH WIND       PRES   REMARKS
BOSTON         LGT RAIN  57  54  89 NW14      30.05S FOG              
BEVERLY        LGT RAIN  57  54  89 N10       30.05R FOG              
LAWRENCE       LGT RAIN  55  53  93 W7        30.09R                  
BEDFORD        LGT RAIN  54  52  93 NW7       30.05S                  
BLUE HILL        N/A     53  53 100 NW13G23   30.03F                  
NORWOOD        CLOUDY    57  52  83 NW9       30.05R                  
MARSHFIELD     CLOUDY    72  64  78 VRB6G15   30.02R                  
PLYMOUTH       PTSUNNY   70  61  73 S8G21     30.02S                  
TAUNTON        LGT RAIN  62  57  83 VRB6      30.03R                  
NEW BEDFORD    PTSUNNY   71  64  78 S16G25    30.01F                  
$$

MAZALL-162100-
CAPE COD AND THE ISLANDS
  
CITY           SKY/WX    TMP DP  RH WIND       PRES   REMARKS
FALMOUTH       PTSUNNY   68  61  77 S15G25    30.04S                  
HYANNIS        PTSUNNY   68  61  78 S12       30.03S                  
CHATHAM        CLOUDY    67  59  75 S10G20    30.07S                  
PROVINCETOWN   CLOUDY    67  60  78 S16G23    30.04S                  
NANTUCKET      SUNNY     68  61  78 S15       30.06S                  
MARTHAS VNYRD  CLOUDY    68  62  81 S15G25    30.04S                  
$$
 
MAZALL-162100-
CENTRAL AND WESTERN MASSACHUSETTS
  
CITY           SKY/WX    TMP DP  RH WIND       PRES   REMARKS
WORCESTER      LGT RAIN  52  49  89 N8        30.07R                  
FITCHBURG      LGT RAIN  52  49  89 NW6       30.09R FOG              
ORANGE         RAIN      52  50  93 NW5       30.10R FOG              
SPRINGFIELD    RAIN      53  52  98 NW8       30.08R FOG              
WESTFIELD      HVY RAIN  53  52  96 NW3       30.09R FOG              
NORTH ADAMS    LGT RAIN  50  47  89 CALM      30.09F FOG              
PITTSFIELD     LGT RAIN  48  44  86 VRB3      30.09F                  
$$
 
RIZALL-162100-
RHODE ISLAND
  
CITY           SKY/WX    TMP DP  RH WIND       PRES   REMARKS
PROVIDENCE     CLOUDY    60  58  92 N10       30.04S                  
NEWPORT        CLOUDY    63  61  93 NW8       30.03R                  
BLOCK ISLAND   CLOUDY    63  59  87 NW5       30.04R                  
SMITHFIELD     CLOUDY    56  56 100 N7          N/A                   
WESTERLY       CLOUDY    59  55  87 N9        30.04R                  
$$
 
CTZALL-162100-
CONNECTICUT
  
CITY           SKY/WX    TMP DP  RH WIND       PRES   REMARKS
BRADLEY INTL   RAIN      53  51  93 N3        30.09R FOG              
HARTFORD       LGT RAIN  54  51  90 N7        30.09S FOG              
BRIDGEPORT     RAIN      54  53  97 CALM      30.10R FOG              
DANBURY        RAIN      52  50  93 N5        30.11R FOG              
GROTON         LGT RAIN  56  53  90 NW12      30.06R FOG              
NEW HAVEN      LGT RAIN  55  53  93 N6        30.10R FOG              
CHESTER        NOT AVBL                                               
MERIDEN        RAIN      53  50  89 NW8       30.10R FOG              
WILLIMANTIC    LGT RAIN  54  53  97 VRB3      30.08R FOG              
OXFORD         RAIN      50  50 100 N12       30.10R                  
$$

MEZ002-015-021-024-NHZ003-005-008-011-012-014-VTZ005-008-162100-
NORTHERN NEW ENGLAND
  
CITY           SKY/WX    TMP DP  RH WIND       PRES   REMARKS
PORTLAND ME    LGT RAIN  59  58  96 NE9       30.01S FOG              
BANGOR ME      LGT RAIN  62  57  83 S16G22    30.04S                  
CONCORD NH     LGT RAIN  52  50  93 N6        30.06F FOG              
MANCHESTER NH  LGT RAIN  54  51  90 CALM      30.06R FOG              
NASHUA NH      RAIN      54  54 100 W3        30.09R FOG              
PORTSMOUTH NH  RAIN      56  54  92 W6        30.05  FOG              
JAFFREY NH     RAIN      50  47  89 CALM      30.07S FOG              
KEENE NH       LGT RAIN  50  48  93 NW7       30.10R                  
BURLINGTON VT  LGT RAIN  51  48  89 E5        30.10S                  
MT. WASHINGTON LGT RAIN  36  36 100 W25         N/A  VSB 1/16WCI  23  
$$

NYZ052-076-162100-
EASTERN NEW YORK
  
CITY           SKY/WX    TMP DP  RH WIND       PRES   REMARKS
ALBANY         LGT RAIN  47  46  97 W5        30.14R FOG              
NEW YORK CITY  LGT RAIN  54  48  80 NW10      30.11R                  
$$
 
ANZALL-162100-
MARINE OBSERVATIONS
  
STATION/POSITION TIME  TEMP    WIND        PRES    VSBY  WAVE
                       AIR SEA DIR/SP/G                  HT/PER
                 (UTC) (F)     (DEG/KT/KT) (MB)    (MI)  (FT/S)
BOSTON BUOY      1950   58 58  340/ 14/ 17 1016.0R         2/ 8
BUZZARDS BAY     1900          170/ 21/ 23 1017.0F
NANTUCKET SOUND  1940      62  170/ 17/ 21   N/A
MASS BAY-STELLWA 1904   58 58  360/ 10/ 12 1016.1R  1 7/8  3/ 8
ISLE OF SHOALS   NOT AVBL
S OF BLOCK IS    1926      64                N/A           4/ 5
$$

......................KEY.........................
  SKY/WX - SKY CONDITION/PRESENT WEATHER
  TMP    - TEMPERATURE IN FAHRENHEIT
  DWPT   - DEWPOINT IN FAHRENHEIT
  RH     - RELATIVE HUMIDITY IN PERCENT
  WIND   - DIRECTION AND SPEED IN MPH
  PRES   - MEAN SEA LEVEL PRESSURE IN INCHES OF HG
  WCI    - WIND CHILL INDEX
  VSB    - VISIBILITY IN MILES
  HX     - HEAT INDEX
  TC     - TEMPERATURE IN CELSIUS
  VRB    - VARIABLE WIND DIRECTION
  N/A    - NOT AVAILABLE
  
      

Other recent Regional Weather Roundups

Thu Oct 22, 7:05pm

Thu Oct 22, 6:04pm

Thu Oct 22, 5:04pm

Thu Oct 22, 4:05pm

Thu Oct 22, 3:04pm

Thu Oct 22, 2:05pm

Thu Oct 22, 1:04pm

Thu Oct 22, 12:04pm

Thu Oct 22, 11:04am

Thu Oct 22, 10:05am

Thu Oct 22, 9:04am

Thu Oct 22, 8:05am

Thu Oct 22, 7:04am

Thu Oct 22, 6:04am

Thu Oct 22, 5:04am

Thu Oct 22, 4:04am

Thu Oct 22, 3:04am

Thu Oct 22, 2:04am

Thu Oct 22, 1:04am

Thu Oct 22, 12:04am

Wed Oct 21, 11:05pm

Wed Oct 21, 10:04pm

Wed Oct 21, 9:04pm

Wed Oct 21, 8:04pm

Wed Oct 21, 7:04pm

Wed Oct 21, 6:04pm

Wed Oct 21, 5:05pm

Wed Oct 21, 4:04pm

Wed Oct 21, 3:04pm

Wed Oct 21, 2:05pm

Wed Oct 21, 1:04pm

Wed Oct 21, 12:04pm

Wed Oct 21, 11:04am

Wed Oct 21, 10:04am

Wed Oct 21, 9:04am

Wed Oct 21, 8:04am

Wed Oct 21, 7:04am

Wed Oct 21, 6:04am

Wed Oct 21, 5:04am

Wed Oct 21, 4:04am

Wed Oct 21, 3:04am

Wed Oct 21, 2:04am

Wed Oct 21, 1:04am

Wed Oct 21, 12:04am

Tue Oct 20, 11:05pm

Tue Oct 20, 10:04pm

Tue Oct 20, 9:04pm

Tue Oct 20, 8:05pm

Tue Oct 20, 7:04pm

Tue Oct 20, 6:04pm

Tue Oct 20, 5:05pm

Tue Oct 20, 4:04pm

Tue Oct 20, 3:05pm

Tue Oct 20, 2:07pm

Tue Oct 20, 1:04pm

Tue Oct 20, 12:04pm

Tue Oct 20, 11:04am

Tue Oct 20, 10:05am

Tue Oct 20, 9:04am

Tue Oct 20, 8:04am

Tue Oct 20, 7:04am

Tue Oct 20, 6:04am

Tue Oct 20, 5:04am

Tue Oct 20, 4:04am

Tue Oct 20, 3:04am

Tue Oct 20, 2:04am

Tue Oct 20, 1:04am

Tue Oct 20, 12:04am

Mon Oct 19, 11:04pm

Mon Oct 19, 10:04pm

Mon Oct 19, 9:04pm

Mon Oct 19, 8:04pm

Mon Oct 19, 7:04pm

Mon Oct 19, 6:04pm

Mon Oct 19, 5:04pm

Mon Oct 19, 4:04pm

Mon Oct 19, 3:04pm

Mon Oct 19, 2:04pm

Mon Oct 19, 1:05pm

Mon Oct 19, 12:04pm

Mon Oct 19, 11:04am

Mon Oct 19, 10:04am

Mon Oct 19, 9:04am

Mon Oct 19, 8:04am

Mon Oct 19, 7:04am

Mon Oct 19, 6:04am

Mon Oct 19, 5:04am

Mon Oct 19, 4:04am

Mon Oct 19, 3:04am

Mon Oct 19, 2:04am

Mon Oct 19, 1:04am

Mon Oct 19, 12:05am

Sun Oct 18, 11:04pm

Sun Oct 18, 10:04pm

Sun Oct 18, 9:04pm

Sun Oct 18, 8:04pm

Sun Oct 18, 7:05pm

Sun Oct 18, 6:04pm

Sun Oct 18, 5:05pm

Sun Oct 18, 4:05pm

Sun Oct 18, 3:04pm

Sun Oct 18, 2:05pm

Sun Oct 18, 1:04pm

Sun Oct 18, 12:04pm

Sun Oct 18, 11:04am

Sun Oct 18, 10:04am

Sun Oct 18, 9:04am

Sun Oct 18, 8:04am

Sun Oct 18, 7:04am

Sun Oct 18, 6:04am

Sun Oct 18, 5:04am

Sun Oct 18, 4:04am

Sun Oct 18, 3:04am

Sun Oct 18, 2:04am

Sun Oct 18, 1:04am

Sun Oct 18, 12:04am

Sat Oct 17, 11:05pm

Sat Oct 17, 10:04pm

Sat Oct 17, 9:04pm

Sat Oct 17, 8:04pm

Sat Oct 17, 7:04pm

Sat Oct 17, 6:04pm

Sat Oct 17, 5:05pm

Sat Oct 17, 4:04pm

Sat Oct 17, 3:04pm

Sat Oct 17, 2:05pm

Sat Oct 17, 1:05pm

Sat Oct 17, 12:04pm

Sat Oct 17, 11:05am

Sat Oct 17, 10:04am

Sat Oct 17, 9:04am

Sat Oct 17, 8:04am

Sat Oct 17, 7:04am

Sat Oct 17, 6:04am

Sat Oct 17, 5:04am

Sat Oct 17, 4:04am

Sat Oct 17, 3:04am

Sat Oct 17, 2:04am

Sat Oct 17, 1:05am

Sat Oct 17, 12:04am

Fri Oct 16, 11:05pm

Fri Oct 16, 10:04pm

Fri Oct 16, 9:05pm

Fri Oct 16, 8:04pm

Fri Oct 16, 7:05pm

Fri Oct 16, 6:04pm

Fri Oct 16, 5:04pm

Fri Oct 16, 3:04pm

Fri Oct 16, 2:04pm

Fri Oct 16, 1:04pm

Fri Oct 16, 12:04pm

Fri Oct 16, 11:05am

Fri Oct 16, 10:04am

Fri Oct 16, 9:04am

Fri Oct 16, 8:04am

Fri Oct 16, 7:04am

Fri Oct 16, 6:04am

Fri Oct 16, 5:04am

Fri Oct 16, 4:04am

Fri Oct 16, 3:04am

Fri Oct 16, 2:04am

Fri Oct 16, 1:04am

Fri Oct 16, 12:04am

Thu Oct 15, 11:04pm

Thu Oct 15, 10:04pm

Thu Oct 15, 9:05pm

Thu Oct 15, 8:04pm

Meta data:

ID: a85841e6-2c93-4662-8495-7b6796ed0970
Link: https://api.weather.gov/products/a85841e6-2c93-4662-8495-7b6796ed0970